Regional Weather Roundup
Issued by NWS Charleston, SC

Current Version | Previous Version | Text Only | Print | Product List | Glossary Off
Versions: 1 2 3 4 5 6 7 8 9 10 11 12 13 14 15 16 17 18 19 20 21 22 23 24 25 26 27 28 29 30 31 32 33 34 35 36 37 38 39 40 41 42 43 44 45 46 47 48 49 50
000 ASUS42 KCHS 211225 RWRCHS REGIONAL WEATHER ROUNDUP NATIONAL WEATHER SERVICE CHARLESTON SC 700 AM EST FRI NOV 21 2014 NOTE: "FAIR" INDICATES FEW OR NO CLOUDS BELOW 12,000 FEET WITH NO SIGNIFICANT WEATHER AND/OR OBSTRUCTIONS TO VISIBILITY. NOT ALL STATIONS ARE QUALITY CONTROLLED BY THE NATIONAL WEATHER SERVICE. USE DATA WITH CAUTION...ESPECIALLY DEWPOINT OBSERVATIONS. SCZ027-030-031-034>040-042>050-211300- ...SOUTH CAROLINA... CITY SKY/WX TMP DP RH WIND PRES REMARKS N CHARLESTON PTCLDY 41 35 79 VRB3 30.32R 6HR MIN TEMP: 39; 6HR MAX TEMP: 50; WATERFRONT PRK N/A 46 N/A N/A CALM N/A FORT JOHNSON NOT AVBL JOHNS ISLAND SUNNY 39 37 93 CALM 30.32R PINOPOLIS N/A 48 39 71 SW3 30.22R MONCKS CORNER FAIR 37 37 100 CALM 30.32R FOG SUMMERVILLE FAIR 34 34 100 CALM 30.34R BEAUFORT MCAS PTCLDY 39 35 86 CALM 30.32R 6HR MIN TEMP: 39; 6HR MAX TEMP: 50; BEAUFORT ARPT FAIR 41 41 100 CALM 30.32R HILTON HEAD IS CLEAR 43 39 87 NW5 30.33 GEORGETOWN NOT AVBL WALTERBORO SUNNY 34 N/A N/A CALM 30.33R HAZE ORANGEBURG CLEAR 41 32 70 N3 30.30R 6HR MIN TEMP: 39; 6HR MAX TEMP: 49; BARNWELL N/A 32 32 100 CALM 30.32R AIKEN FAIR 37 32 81 CALM 30.34R MANNING NOT AVBL KINGSTREE NOT AVBL COLUMBIA CLEAR 38 32 79 CALM 30.31R 6HR MIN TEMP: 35; 6HR MAX TEMP: 45; SUMTER PTCLDY 41 31 68 NW7 30.29R 6HR MIN TEMP: 34; 6HR MAX TEMP: 46; FLORENCE CLEAR 34 29 82 CALM 30.31R 6HR MIN TEMP: 34; 6HR MAX TEMP: 47; MYRTLE BEACH CLEAR 45 34 65 NW7 30.29R N MYRTLE BEACH PTCLDY 44 35 70 N6 30.30R 6HR MIN TEMP: 44; 6HR MAX TEMP: 50; $$ GAZ063-065-086>088-099>101-113>116-118-119-134-136>141-150-211300- ...GEORGIA... CITY SKY/WX TMP DP RH WIND PRES REMARKS SAVANNAH ARPT PTCLDY 39 34 82 NW3 30.33R 6HR MIN TEMP: 37; 6HR MAX TEMP: 44; HUNTER AAF CLEAR 36 34 92 NW1 30.30R 6HR MIN TEMP: 36; 6HR MAX TEMP: 42; FORT STEWART CLEAR 36 34 92 NW6 30.31R WCI 31 6HR MIN TEMP: 34; 6HR MAX TEMP: 40; STATESBORO NOT AVBL SYLVANIA SUNNY 37 36 96 CALM 30.34R CLAXTON FAIR 32 32 100 CALM 30.35R THOMSON CLEAR 32 32 100 CALM 30.38R AUGUSTA-BUSH CLEAR 30 28 92 CALM 30.35R FOG 6HR MIN TEMP: 27; 6HR MAX TEMP: 38; AUGUSTA-DANIEL CLEAR 43 33 68 NW7 30.32R SWAINSBORO FAIR 36 36 100 CALM 30.34R FOG VIDALIA CLEAR 37 37 100 CALM 30.34R ALMA CLEAR 32 32 100 N3 30.33R FOG 6HR MIN TEMP: 32; 6HR MAX TEMP: 37; WAYCROSS CLEAR 37 36 95 CALM 30.34R JESUP FAIR 34 34 100 CALM 30.34R BRUNSWICK CLEAR 37 36 93 CALM 30.34R SAINT SIMONS CLEAR 44 37 76 NW5 30.32R 6HR MIN TEMP: 39; 6HR MAX TEMP: 44; $$ SCZ027-028-034-036>038-045-046-048>050-GAZ119-141-211300- ...LAKE AND SUPPLEMENTAL COASTAL OBSERVATIONS... STATION/POSITION TIME TEMP WIND PRES WAVE SWELL AIR SEA DIR/SP/G HT/PER HT/PER/DIR (UTC) (F) (DEG/KT/KT) (MB) (FT/S) (FT/S/D) UPR LAKE MARION NOT AVBL WINYAH BAY 1200 45 310/ 4 1025.0S LAKE MURRAY 1200 43 340/ 1/ 3 1025.7R ACE BASIN NERRS 1200 40 CALM 1026.0S FORT PULASKI 1200 45 320/ 4/ 5 1026.9R SAPELO ISLAND NOT AVBL $$ ANZ835-935-AMZ111-154-330-350-352-354-374-450-454-472-211300- ...C-MAN AND BUOY OBSERVATIONS... STATION/POSITION TIME TEMP WIND PRES WAVE SWELL AIR SEA DIR/SP/G HT/PER HT/PER/DIR (UTC) (F) (DEG/KT/KT) (MB) (FT/S) (FT/S/D) FOLLY BEACH CMAN 1200 46 300/ 4/ 6 1026.9R BUOY 41004 1200 62 72 330/ 17/ 19 1025.1R 3/ 4 2/ 9 BUOY 41008 1200 57 64 360/ 12/ 16 1026.1R 2/ 3 2/130/ 8 5E ST. MARYS GA 1200 63 N/A 2/ 8 FRYING PAN BUOY 1200 58 66 330/ 19/ 23 1025.4R 5/ 6 BUOY 41025 1200 52 320/ 17/ 23 1024.2R 6/ 8 3/200/ 8 CAPE LOOKOUT NC 1200 48 330/ 15/ 17 1025.5R BUOY 41002 1141 68 73 330/ 16/ 19 1024.0R 6/ 7 2/ 70/11 BUOY 41010 1200 70 78 40/ 14/ 17 1023.9R 4/ 7 3/100/ 7 BUOY 41012 NOT AVBL ST AUGUSTINE FL 1200 51 330/ 7/ 9 1026.6R CAPERS NEARSHORE 1100 52 320/ 12/ 14 N/A FRIPP NEARSHORE NOT AVBL $$

USA.gov is the U.S. government's official web portal to all federal, state and local government web resources and services.